| time (UTC) | temp F | wind direction | speed knots | gust knots | rain 1hr in | rain 24hr in | rain mn in | humidity % | barometer mb |
| 20260906232501 | 93 | 217 | 0.0 | 0.0 | 0.00 | 0.00 | 0.00 | 20 | 1016.0 |
| 20260906231901 | 94 | 220 | 0.0 | 0.0 | 0.00 | 0.00 | 0.00 | 20 | 1016.1 |
| 20260906231301 | 94 | 223 | 0.0 | 0.0 | 0.00 | 0.00 | 0.00 | 20 | 1016.0 |
| 20260906230701 | 94 | 218 | 0.0 | 0.0 | 0.00 | 0.00 | 0.00 | 20 | 1016.1 |
| 20260906225501 | 94 | 243 | 0.0 | 0.9 | 0.00 | 0.00 | 0.00 | 20 | 1016.1 |
| 20260906224900 | 94 | 247 | 0.0 | 4.3 | 0.00 | 0.00 | 0.00 | 20 | 1016.1 |
| 20260906224300 | 94 | 232 | 0.9 | 4.3 | 0.00 | 0.00 | 0.00 | 20 | 1016.1 |
| 20260906223700 | 94 | 210 | 0.9 | 4.3 | 0.00 | 0.00 | 0.00 | 20 | 1016.1 |
| 20260906223100 | 94 | 197 | 0.0 | 5.2 | 0.00 | 0.00 | 0.00 | 20 | 1016.2 |
| 20260906222500 | 94 | 259 | 0.9 | 5.2 | 0.00 | 0.00 | 0.00 | 20 | 1016.2 |
| 20260906221900 | 94 | 227 | 0.0 | 9.6 | 0.00 | 0.00 | 0.00 | 20 | 1016.2 |
| 20260906221300 | 94 | 253 | 3.5 | 9.6 | 0.00 | 0.00 | 0.00 | 20 | 1016.3 |
| 20260906220700 | 94 | 224 | 0.0 | 2.6 | 0.00 | 0.00 | 0.00 | 20 | 1016.5 |
| 20260906220101 | 94 | 136 | 0.0 | 6.1 | 0.00 | 0.00 | 0.00 | 19 | 1016.6 |
| 20260906215459 | 94 | 124 | 0.0 | 5.2 | 0.00 | 0.00 | 0.00 | 19 | 1016.7 |
| 20260906214859 | 93 | 282 | 0.9 | 7.0 | 0.00 | 0.00 | 0.00 | 20 | 1016.9 |
| 20260906214259 | 93 | 235 | 1.7 | 7.0 | 0.00 | 0.00 | 0.00 | 19 | 1017.0 |
| 20260906213659 | 94 | 237 | 0.9 | 7.8 | 0.00 | 0.00 | 0.00 | 19 | 1017.0 |
| 20260906213059 | 93 | 234 | 2.6 | 7.8 | 0.00 | 0.00 | 0.00 | 19 | 1017.2 |
| 20260906212459 | 94 | 245 | 0.0 | 0.0 | 0.00 | 0.00 | 0.00 | 18 | 1017.3 |
| 20260906211900 | 95 | 223 | 0.0 | 0.0 | 0.00 | 0.00 | 0.00 | 18 | 1017.4 |
| 20260906211259 | 93 | 273 | 0.0 | 0.0 | 0.00 | 0.00 | 0.00 | 18 | 1017.5 |
| 20260906210659 | 94 | 228 | 0.0 | 3.5 | 0.00 | 0.00 | 0.00 | 18 | 1017.6 |
| 20260906210100 | 94 | 220 | 0.0 | 3.5 | 0.00 | 0.00 | 0.00 | 17 | 1017.7 |
| 20260906205458 | 94 | 23 | 0.0 | 0.0 | 0.00 | 0.00 | 0.00 | 17 | 1017.8 |
| 20260906204858 | 96 | 31 | 0.0 | 0.9 | 0.00 | 0.00 | 0.00 | 16 | 1017.9 |
| 20260906204258 | 95 | 37 | 0.0 | 0.9 | 0.00 | 0.00 | 0.00 | 17 | 1018.0 |
| 20260906203658 | 94 | 69 | 0.0 | 0.9 | 0.00 | 0.00 | 0.00 | 17 | 1018.1 |
| 20260906203059 | 91 | 327 | 0.0 | 0.0 | 0.00 | 0.00 | 0.00 | 19 | 1018.2 |
| 20260906202458 | 91 | 289 | 0.0 | 6.1 | 0.00 | 0.00 | 0.00 | 18 | 1018.4 |
| 20260906201858 | 91 | 317 | 1.7 | 6.1 | 0.00 | 0.00 | 0.00 | 19 | 1018.4 |
| 20260906201258 | 91 | 270 | 0.0 | 4.3 | 0.00 | 0.00 | 0.00 | 19 | 1018.5 |
| 20260906200658 | 93 | 259 | 0.9 | 7.8 | 0.00 | 0.00 | 0.00 | 18 | 1018.5 |
| 20260906200059 | 94 | 335 | 0.0 | 6.1 | 0.00 | 0.00 | 0.00 | 18 | 1018.5 |
| 20260906195457 | 94 | 18 | 1.7 | 6.1 | 0.00 | 0.00 | 0.00 | 18 | 1018.6 |
| 20260906194858 | 91 | 254 | 0.0 | 0.0 | 0.00 | 0.00 | 0.00 | 19 | 1018.7 |
| 20260906194257 | 90 | 258 | 0.0 | 0.0 | 0.00 | 0.00 | 0.00 | 19 | 1018.8 |
| 20260906193657 | 90 | 258 | 0.0 | 0.0 | 0.00 | 0.00 | 0.00 | 19 | 1018.9 |
| 20260906193057 | 90 | 255 | 0.0 | 0.0 | 0.00 | 0.00 | 0.00 | 19 | 1019.0 |
| 20260906192457 | 89 | 276 | 0.0 | 4.3 | 0.00 | 0.00 | 0.00 | 19 | 1019.0 |
| 20260906191857 | 89 | 232 | 0.0 | 3.5 | 0.00 | 0.00 | 0.00 | 19 | 1019.2 |
| 20260906191257 | 90 | 277 | 0.0 | 0.0 | 0.00 | 0.00 | 0.00 | 18 | 1019.2 |
| 20260906190657 | 91 | 255 | 0.0 | 0.0 | 0.00 | 0.00 | 0.00 | 19 | 1019.3 |
| 20260906190057 | 90 | 209 | 0.0 | 0.0 | 0.00 | 0.00 | 0.00 | 19 | 1019.5 |
| 20260906185456 | 90 | 71 | 0.0 | 0.0 | 0.00 | 0.00 | 0.00 | 19 | 1019.6 |
| 20260906184856 | 91 | 29 | 0.0 | 7.0 | 0.00 | 0.00 | 0.00 | 19 | 1019.7 |
| 20260906184257 | 92 | 2 | 0.0 | 6.1 | 0.00 | 0.00 | 0.00 | 19 | 1019.9 |
| 20260906183656 | 91 | 75 | 0.0 | 0.0 | 0.00 | 0.00 | 0.00 | 21 | 1019.9 |
| 20260906183056 | 89 | 23 | 0.0 | 0.0 | 0.00 | 0.00 | 0.00 | 21 | 1020.0 |
| 20260906182456 | 91 | 12 | 0.0 | 0.9 | 0.00 | 0.00 | 0.00 | 19 | 1020.1 |
| 20260906181856 | 90 | 69 | 0.0 | 0.0 | 0.00 | 0.00 | 0.00 | 21 | 1020.2 |
| 20260906181256 | 89 | 79 | 0.0 | 0.9 | 0.00 | 0.00 | 0.00 | 22 | 1020.3 |
| 20260906180656 | 88 | 119 | 0.0 | 0.0 | 0.00 | 0.00 | 0.00 | 24 | 1020.5 |
| 20260906180056 | 87 | 133 | 0.0 | 0.0 | 0.00 | 0.00 | 0.00 | 26 | 1020.5 |
| 20260906175454 | 88 | 12 | 0.0 | 0.0 | 0.00 | 0.00 | 0.00 | 24 | 1020.6 |
| 20260906174854 | 88 | 34 | 0.0 | 0.0 | 0.00 | 0.00 | 0.00 | 25 | 1020.6 |
| 20260906174254 | 88 | 53 | 0.0 | 0.0 | 0.00 | 0.00 | 0.00 | 25 | 1020.7 |
| 20260906173654 | 87 | 25 | 0.0 | 0.0 | 0.00 | 0.00 | 0.00 | 26 | 1020.8 |
| 20260906173054 | 87 | 7 | 0.0 | 4.3 | 0.00 | 0.00 | 0.00 | 25 | 1020.9 |
| 20260906172454 | 86 | 31 | 1.7 | 6.1 | 0.00 | 0.00 | 0.00 | 27 | 1021.0 |
| 20260906171854 | 86 | 15 | 4.3 | 6.1 | 0.00 | 0.00 | 0.00 | 27 | 1021.0 |
| 20260906171254 | 86 | 355 | 3.5 | 6.1 | 0.00 | 0.00 | 0.00 | 27 | 1021.1 |
| 20260906170654 | 86 | 22 | 0.0 | 3.5 | 0.00 | 0.00 | 0.00 | 28 | 1021.1 |
| 20260906170054 | 85 | 70 | 0.0 | 6.1 | 0.00 | 0.00 | 0.00 | 29 | 1021.1 |
| 20260906165454 | 83 | 31 | 0.9 | 6.1 | 0.00 | 0.00 | 0.00 | 30 | 1021.2 |
| 20260906164854 | 82 | 10 | 0.9 | 7.0 | 0.00 | 0.00 | 0.00 | 30 | 1021.3 |
| 20260906164254 | 82 | 22 | 1.7 | 7.0 | 0.00 | 0.00 | 0.00 | 30 | 1021.3 |
| 20260906163654 | 83 | 12 | 1.7 | 8.7 | 0.00 | 0.00 | 0.00 | 31 | 1021.3 |
| 20260906163054 | 83 | 350 | 7.0 | 8.7 | 0.00 | 0.00 | 0.00 | 30 | 1021.3 |
| 20260906162454 | 83 | 349 | 0.0 | 8.7 | 0.00 | 0.00 | 0.00 | 30 | 1021.3 |
| 20260906161853 | 84 | 12 | 4.3 | 8.7 | 0.00 | 0.00 | 0.00 | 30 | 1021.3 |
| 20260906161253 | 83 | 36 | 0.0 | 8.7 | 0.00 | 0.00 | 0.00 | 31 | 1021.4 |
| 20260906160653 | 82 | 35 | 0.9 | 7.8 | 0.00 | 0.00 | 0.00 | 31 | 1021.3 |
| 20260906160055 | 81 | 29 | 0.9 | 7.8 | 0.00 | 0.00 | 0.00 | 32 | 1021.3 |
| 20260906155453 | 80 | 51 | 0.9 | 10.4 | 0.00 | 0.00 | 0.00 | 32 | 1021.3 |
| 20260906154853 | 80 | 349 | 1.7 | 10.4 | 0.00 | 0.00 | 0.00 | 32 | 1021.3 |
| 20260906154253 | 80 | 352 | 3.5 | 7.8 | 0.00 | 0.00 | 0.00 | 32 | 1021.3 |
| 20260906153652 | 79 | 19 | 2.6 | 10.4 | 0.00 | 0.00 | 0.00 | 33 | 1021.3 |
| 20260906153052 | 78 | 6 | 4.3 | 10.4 | 0.00 | 0.00 | 0.00 | 33 | 1021.3 |
| 20260906152453 | 78 | 335 | 1.7 | 6.1 | 0.00 | 0.00 | 0.00 | 33 | 1021.1 |
| 20260906151852 | 77 | 301 | 0.9 | 7.0 | 0.00 | 0.00 | 0.00 | 34 | 1021.3 |
| 20260906151252 | 76 | 12 | 2.6 | 8.7 | 0.00 | 0.00 | 0.00 | 35 | 1021.3 |
| 20260906150653 | 75 | 345 | 6.1 | 9.6 | 0.00 | 0.00 | 0.00 | 35 | 1021.4 |
| 20260906150053 | 75 | 335 | 7.8 | 9.6 | 0.00 | 0.00 | 0.00 | 35 | 1021.3 |
| 20260906145451 | 75 | 335 | 7.8 | 10.4 | 0.00 | 0.00 | 0.00 | 35 | 1021.3 |
| 20260906144851 | 75 | 3 | 7.0 | 9.6 | 0.00 | 0.00 | 0.00 | 35 | 1021.3 |
| 20260906144251 | 75 | 330 | 4.3 | 9.6 | 0.00 | 0.00 | 0.00 | 35 | 1021.3 |
| 20260906143651 | 74 | 345 | 5.2 | 10.4 | 0.00 | 0.00 | 0.00 | 35 | 1021.1 |
| 20260906143052 | 74 | 340 | 2.6 | 8.7 | 0.00 | 0.00 | 0.00 | 35 | 1021.1 |
| 20260906142451 | 73 | 345 | 7.0 | 8.7 | 0.00 | 0.00 | 0.00 | 36 | 1021.1 |
| 20260906141851 | 72 | 10 | 4.3 | 8.7 | 0.00 | 0.00 | 0.00 | 38 | 1021.1 |
| 20260906141251 | 71 | 357 | 0.0 | 0.0 | 0.00 | 0.00 | 0.00 | 39 | 1021.1 |
| 20260906140651 | 70 | 18 | 0.0 | 0.0 | 0.00 | 0.00 | 0.00 | 40 | 1021.0 |
| 20260906140051 | 69 | 22 | 0.0 | 0.0 | 0.00 | 0.00 | 0.00 | 40 | 1021.0 |
| 20260906135449 | 69 | 47 | 0.0 | 0.0 | 0.00 | 0.00 | 0.00 | 40 | 1020.9 |
| 20260906134849 | 69 | 55 | 0.0 | 0.0 | 0.00 | 0.00 | 0.00 | 40 | 1020.9 |
| 20260906134249 | 69 | 1 | 0.0 | 0.0 | 0.00 | 0.00 | 0.00 | 40 | 1020.8 |
| 20260906133649 | 69 | 351 | 0.0 | 0.0 | 0.00 | 0.00 | 0.00 | 40 | 1020.7 |
| 20260906133049 | 69 | 351 | 0.0 | 0.0 | 0.00 | 0.00 | 0.00 | 39 | 1020.6 |
| 20260906132450 | 69 | 345 | 0.0 | 0.0 | 0.00 | 0.00 | 0.00 | 39 | 1020.6 |
| 20260906131849 | 69 | 345 | 0.0 | 0.0 | 0.00 | 0.00 | 0.00 | 39 | 1020.6 |
| 20260906131249 | 69 | 354 | 0.0 | 0.0 | 0.00 | 0.00 | 0.00 | 39 | 1020.6 |
| 20260906130649 | 69 | 356 | 0.0 | 0.0 | 0.00 | 0.00 | 0.00 | 39 | 1020.6 |
| 20260906130049 | 68 | 356 | 0.0 | 0.0 | 0.00 | 0.00 | 0.00 | 39 | 1020.5 |
| 20260906125448 | 68 | 356 | 0.0 | 0.0 | 0.00 | 0.00 | 0.00 | 39 | 1020.5 |
| 20260906124848 | 68 | 356 | 0.0 | 0.0 | 0.00 | 0.00 | 0.00 | 39 | 1020.4 |
| 20260906124248 | 68 | 356 | 0.0 | 0.0 | 0.00 | 0.00 | 0.00 | 39 | 1020.4 |
| 20260906123648 | 68 | 356 | 0.0 | 0.0 | 0.00 | 0.00 | 0.00 | 39 | 1020.4 |
| 20260906123048 | 68 | 356 | 0.0 | 0.0 | 0.00 | 0.00 | 0.00 | 40 | 1020.4 |
| 20260906122449 | 68 | 356 | 0.0 | 0.0 | 0.00 | 0.00 | 0.00 | 41 | 1020.4 |
| 20260906121848 | 68 | 356 | 0.0 | 0.0 | 0.00 | 0.00 | 0.00 | 41 | 1020.4 |
| 20260906121248 | 68 | 356 | 0.0 | 0.0 | 0.00 | 0.00 | 0.00 | 42 | 1020.4 |
| 20260906120648 | 69 | 357 | 0.0 | 0.0 | 0.00 | 0.00 | 0.00 | 43 | 1020.3 |
| 20260906120049 | 69 | 357 | 0.0 | 0.0 | 0.00 | 0.00 | 0.00 | 43 | 1020.3 |
| 20260906115447 | 69 | 357 | 0.0 | 0.0 | 0.00 | 0.00 | 0.00 | 42 | 1020.2 |
| 20260906114847 | 69 | 357 | 0.0 | 0.0 | 0.00 | 0.00 | 0.00 | 42 | 1020.3 |
| 20260906114248 | 70 | 357 | 0.0 | 0.0 | 0.00 | 0.00 | 0.00 | 42 | 1020.3 |
| 20260906113647 | 70 | 357 | 0.0 | 0.0 | 0.00 | 0.00 | 0.00 | 41 | 1020.3 |
| 20260906113047 | 70 | 357 | 0.0 | 0.0 | 0.00 | 0.00 | 0.00 | 41 | 1020.3 |
| 20260906112448 | 71 | 357 | 0.0 | 0.0 | 0.00 | 0.00 | 0.00 | 40 | 1020.2 |
| 20260906111847 | 71 | 357 | 0.0 | 0.0 | 0.00 | 0.00 | 0.00 | 39 | 1020.2 |
| 20260906111247 | 71 | 357 | 0.0 | 0.0 | 0.00 | 0.00 | 0.00 | 39 | 1020.2 |
| 20260906110647 | 72 | 357 | 0.0 | 0.0 | 0.00 | 0.00 | 0.00 | 38 | 1020.1 |
| 20260906110047 | 72 | 357 | 0.0 | 0.0 | 0.00 | 0.00 | 0.00 | 38 | 1020.1 |
| 20260906105447 | 72 | 356 | 0.0 | 0.0 | 0.00 | 0.00 | 0.00 | 37 | 1020.2 |
| 20260906104847 | 73 | 349 | 0.0 | 0.0 | 0.00 | 0.00 | 0.00 | 36 | 1020.2 |
| 20260906104247 | 73 | 345 | 0.0 | 0.0 | 0.00 | 0.00 | 0.00 | 36 | 1020.2 |
| 20260906103647 | 73 | 345 | 0.0 | 0.0 | 0.00 | 0.00 | 0.00 | 36 | 1020.2 |
| 20260906103047 | 73 | 345 | 0.0 | 0.0 | 0.00 | 0.00 | 0.00 | 35 | 1020.1 |
| 20260906102446 | 73 | 345 | 0.0 | 0.0 | 0.00 | 0.00 | 0.00 | 35 | 1020.1 |
| 20260906101846 | 73 | 345 | 0.0 | 0.0 | 0.00 | 0.00 | 0.00 | 35 | 1020.0 |
| 20260906101247 | 73 | 311 | 0.0 | 0.0 | 0.00 | 0.00 | 0.00 | 36 | 1020.0 |
| 20260906100646 | 74 | 329 | 0.0 | 0.0 | 0.00 | 0.00 | 0.00 | 36 | 1019.9 |
| 20260906100047 | 74 | 340 | 0.0 | 0.0 | 0.00 | 0.00 | 0.00 | 36 | 1020.0 |
| 20260906095446 | 74 | 340 | 0.0 | 0.0 | 0.00 | 0.00 | 0.00 | 35 | 1019.9 |
| 20260906094846 | 74 | 340 | 0.0 | 0.0 | 0.00 | 0.00 | 0.00 | 35 | 1019.9 |
| 20260906094246 | 74 | 340 | 0.0 | 0.0 | 0.00 | 0.00 | 0.00 | 35 | 1019.9 |
| 20260906093646 | 74 | 335 | 0.0 | 0.0 | 0.00 | 0.00 | 0.00 | 34 | 1019.9 |
| 20260906093046 | 74 | 335 | 0.0 | 0.0 | 0.00 | 0.00 | 0.00 | 35 | 1019.9 |
| 20260906092446 | 74 | 335 | 0.0 | 0.0 | 0.00 | 0.00 | 0.00 | 35 | 1019.8 |
| 20260906091846 | 74 | 335 | 0.0 | 0.0 | 0.00 | 0.00 | 0.00 | 35 | 1019.7 |
| 20260906091246 | 74 | 305 | 0.0 | 0.0 | 0.00 | 0.00 | 0.00 | 35 | 1019.7 |
| 20260906090646 | 74 | 326 | 0.0 | 0.0 | 0.00 | 0.00 | 0.00 | 36 | 1019.7 |
| 20260906090046 | 74 | 328 | 0.0 | 0.0 | 0.00 | 0.00 | 0.00 | 36 | 1019.6 |
| 20260906085446 | 74 | 324 | 0.0 | 0.0 | 0.00 | 0.00 | 0.00 | 36 | 1019.5 |
| 20260906084846 | 74 | 319 | 0.0 | 0.0 | 0.00 | 0.00 | 0.00 | 35 | 1019.5 |
| 20260906084246 | 74 | 316 | 0.0 | 0.0 | 0.00 | 0.00 | 0.00 | 35 | 1019.7 |
| 20260906083646 | 74 | 290 | 0.0 | 0.0 | 0.00 | 0.00 | 0.00 | 35 | 1019.7 |
| 20260906083046 | 75 | 291 | 0.0 | 0.0 | 0.00 | 0.00 | 0.00 | 35 | 1019.7 |
| 20260906082446 | 75 | 290 | 0.0 | 0.0 | 0.00 | 0.00 | 0.00 | 35 | 1019.7 |
| 20260906081846 | 75 | 288 | 0.0 | 0.0 | 0.00 | 0.00 | 0.00 | 35 | 1019.7 |
| 20260906081246 | 75 | 289 | 0.0 | 0.0 | 0.00 | 0.00 | 0.00 | 35 | 1019.7 |
| 20260906080646 | 75 | 311 | 0.0 | 0.0 | 0.00 | 0.00 | 0.00 | 34 | 1019.9 |
| 20260906080046 | 75 | 314 | 0.0 | 0.0 | 0.00 | 0.00 | 0.00 | 35 | 1019.9 |
| 20260906075446 | 75 | 314 | 0.0 | 0.0 | 0.00 | 0.00 | 0.00 | 35 | 1020.0 |
| 20260906074846 | 74 | 311 | 0.0 | 0.0 | 0.00 | 0.00 | 0.00 | 35 | 1020.0 |
| 20260906074246 | 74 | 315 | 0.0 | 0.0 | 0.00 | 0.00 | 0.00 | 36 | 1020.0 |
| 20260906073646 | 74 | 314 | 0.0 | 0.0 | 0.00 | 0.00 | 0.00 | 36 | 1020.1 |
| 20260906073046 | 74 | 355 | 0.0 | 0.0 | 0.00 | 0.00 | 0.00 | 36 | 1020.1 |
| 20260906072446 | 74 | 20 | 0.0 | 0.0 | 0.00 | 0.00 | 0.00 | 36 | 1020.1 |
| 20260906071846 | 74 | 31 | 0.0 | 0.0 | 0.00 | 0.00 | 0.00 | 36 | 1020.1 |
| 20260906071246 | 75 | 31 | 0.0 | 0.0 | 0.00 | 0.00 | 0.00 | 36 | 1020.1 |
| 20260906070646 | 75 | 37 | 0.0 | 0.0 | 0.00 | 0.00 | 0.00 | 36 | 1020.1 |
| 20260906070046 | 75 | 37 | 0.0 | 0.0 | 0.00 | 0.00 | 0.00 | 35 | 1020.1 |
| 20260906065446 | 76 | 37 | 0.0 | 0.0 | 0.00 | 0.00 | 0.00 | 35 | 1020.1 |
| 20260906064846 | 76 | 37 | 0.0 | 0.0 | 0.00 | 0.00 | 0.00 | 34 | 1020.1 |
| 20260906064246 | 76 | 37 | 0.0 | 0.0 | 0.00 | 0.00 | 0.00 | 34 | 1020.1 |
| 20260906063646 | 75 | 45 | 0.0 | 0.0 | 0.00 | 0.00 | 0.00 | 35 | 1020.0 |
| 20260906063046 | 75 | 20 | 0.0 | 0.0 | 0.00 | 0.00 | 0.00 | 35 | 1020.0 |
| 20260906062447 | 75 | 20 | 0.0 | 0.0 | 0.00 | 0.00 | 0.00 | 35 | 1019.9 |
| 20260906061845 | 75 | 345 | 0.0 | 0.0 | 0.00 | 0.00 | 0.00 | 35 | 1019.8 |
| 20260906061245 | 75 | 340 | 0.0 | 0.0 | 0.00 | 0.00 | 0.00 | 36 | 1019.7 |
| 20260906060647 | 75 | 340 | 0.0 | 0.0 | 0.00 | 0.00 | 0.00 | 36 | 1019.7 |
| 20260906060046 | 75 | 340 | 0.0 | 0.0 | 0.00 | 0.00 | 0.00 | 36 | 1019.7 |
| 20260906055446 | 76 | 357 | 0.0 | 0.0 | 0.00 | 0.00 | 0.00 | 36 | 1019.7 |
| 20260906054846 | 76 | 357 | 0.0 | 0.0 | 0.00 | 0.00 | 0.00 | 36 | 1019.5 |
| 20260906054246 | 76 | 351 | 0.0 | 3.5 | 0.00 | 0.00 | 0.00 | 35 | 1019.5 |
| 20260906053646 | 76 | 319 | 0.9 | 4.3 | 0.00 | 0.00 | 0.00 | 36 | 1019.5 |
| 20260906053045 | 76 | 313 | 0.9 | 4.3 | 0.00 | 0.00 | 0.00 | 36 | 1019.4 |
| 20260906052445 | 76 | 305 | 0.0 | 4.3 | 0.00 | 0.00 | 0.00 | 36 | 1019.5 |
| 20260906051846 | 76 | 307 | 0.9 | 4.3 | 0.00 | 0.00 | 0.00 | 36 | 1019.4 |
| 20260906051245 | 76 | 316 | 0.0 | 3.5 | 0.00 | 0.00 | 0.00 | 36 | 1019.4 |
| 20260906050645 | 76 | 311 | 0.9 | 3.5 | 0.00 | 0.00 | 0.00 | 36 | 1019.3 |
| 20260906050046 | 76 | 273 | 0.0 | 3.5 | 0.00 | 0.00 | 0.00 | 36 | 1019.3 |
| 20260906045445 | 77 | 303 | 0.0 | 0.0 | 0.00 | 0.00 | 0.00 | 36 | 1019.2 |
| 20260906044845 | 77 | 301 | 0.0 | 5.2 | 0.00 | 0.00 | 0.00 | 36 | 1019.3 |
| 20260906044245 | 77 | 309 | 0.0 | 2.6 | 0.00 | 0.00 | 0.00 | 35 | 1019.3 |
| 20260906043645 | 77 | 316 | 0.0 | 0.0 | 0.00 | 0.00 | 0.00 | 35 | 1019.3 |
| 20260906043045 | 77 | 297 | 0.0 | 0.0 | 0.00 | 0.00 | 0.00 | 35 | 1019.3 |
| 20260906042446 | 77 | 314 | 0.0 | 4.3 | 0.00 | 0.00 | 0.00 | 35 | 1019.3 |
| 20260906041845 | 78 | 308 | 0.0 | 0.0 | 0.00 | 0.00 | 0.00 | 34 | 1019.2 |
| 20260906041245 | 78 | 322 | 0.0 | 0.0 | 0.00 | 0.00 | 0.00 | 34 | 1019.3 |
| 20260906040645 | 78 | 310 | 0.0 | 0.0 | 0.00 | 0.00 | 0.00 | 33 | 1019.3 |
| 20260906040045 | 78 | 294 | 0.0 | 0.0 | 0.00 | 0.00 | 0.00 | 33 | 1019.4 |
| 20260906035445 | 79 | 310 | 0.0 | 0.0 | 0.00 | 0.00 | 0.00 | 33 | 1019.4 |
| 20260906034845 | 79 | 316 | 0.0 | 0.0 | 0.00 | 0.00 | 0.00 | 33 | 1019.3 |
| 20260906034245 | 79 | 305 | 0.0 | 4.3 | 0.00 | 0.00 | 0.00 | 32 | 1019.3 |
| 20260906033645 | 79 | 301 | 0.0 | 0.9 | 0.00 | 0.00 | 0.00 | 32 | 1019.3 |
| 20260906033045 | 80 | 276 | 0.0 | 0.0 | 0.00 | 0.00 | 0.00 | 32 | 1019.2 |
| 20260906032445 | 80 | 303 | 0.0 | 0.0 | 0.00 | 0.00 | 0.00 | 31 | 1019.2 |
| 20260906031845 | 80 | 311 | 0.0 | 2.6 | 0.00 | 0.00 | 0.00 | 31 | 1019.0 |
| 20260906031245 | 80 | 314 | 0.0 | 0.0 | 0.00 | 0.00 | 0.00 | 31 | 1018.9 |
| 20260906030645 | 81 | 351 | 0.0 | 0.0 | 0.00 | 0.00 | 0.00 | 31 | 1018.8 |
| 20260906030046 | 81 | 304 | 0.0 | 0.0 | 0.00 | 0.00 | 0.00 | 30 | 1018.8 |
| 20260906025445 | 81 | 284 | 0.0 | 0.0 | 0.00 | 0.00 | 0.00 | 30 | 1018.7 |
| 20260906024845 | 81 | 315 | 0.0 | 0.0 | 0.00 | 0.00 | 0.00 | 30 | 1018.7 |
| 20260906024245 | 82 | 309 | 0.0 | 0.0 | 0.00 | 0.00 | 0.00 | 30 | 1018.5 |
| 20260906023645 | 82 | 326 | 0.0 | 0.0 | 0.00 | 0.00 | 0.00 | 30 | 1018.5 |
| 20260906023045 | 83 | 308 | 0.0 | 0.0 | 0.00 | 0.00 | 0.00 | 30 | 1018.4 |
| 20260906022445 | 83 | 302 | 0.0 | 3.5 | 0.00 | 0.00 | 0.00 | 30 | 1018.3 |
| 20260906021845 | 84 | 299 | 0.0 | 0.0 | 0.00 | 0.00 | 0.00 | 29 | 1018.3 |
| 20260906021245 | 84 | 324 | 0.0 | 3.5 | 0.00 | 0.00 | 0.00 | 29 | 1018.3 |
| 20260906020645 | 84 | 281 | 0.0 | 3.5 | 0.00 | 0.00 | 0.00 | 29 | 1018.2 |
| 20260906020045 | 85 | 289 | 0.0 | 0.0 | 0.00 | 0.00 | 0.00 | 29 | 1018.1 |
| 20260906015445 | 85 | 311 | 0.0 | 3.5 | 0.00 | 0.00 | 0.00 | 29 | 1018.0 |
| 20260906014845 | 85 | 299 | 1.7 | 5.2 | 0.00 | 0.00 | 0.00 | 28 | 1018.0 |
| 20260906014245 | 86 | 299 | 0.0 | 4.3 | 0.00 | 0.00 | 0.00 | 28 | 1018.0 |
| 20260906013645 | 86 | 335 | 0.9 | 3.5 | 0.00 | 0.00 | 0.00 | 28 | 1018.0 |
| 20260906013045 | 86 | 298 | 0.9 | 5.2 | 0.00 | 0.00 | 0.00 | 28 | 1018.0 |
| 20260906012445 | 86 | 283 | 0.9 | 6.1 | 0.00 | 0.00 | 0.00 | 28 | 1018.0 |
| 20260906011845 | 87 | 296 | 0.9 | 5.2 | 0.00 | 0.00 | 0.00 | 28 | 1018.0 |
| 20260906011245 | 87 | 308 | 0.0 | 2.6 | 0.00 | 0.00 | 0.00 | 28 | 1017.9 |
| 20260906010645 | 87 | 325 | 0.9 | 3.5 | 0.00 | 0.00 | 0.00 | 27 | 1018.0 |
| 20260906010045 | 88 | 335 | 0.9 | 6.1 | 0.00 | 0.00 | 0.00 | 27 | 1018.0 |
| 20260906005445 | 88 | 335 | 3.5 | 7.0 | 0.00 | 0.00 | 0.00 | 27 | 1017.9 |
| 20260906004845 | 88 | 319 | 4.3 | 7.0 | 0.00 | 0.00 | 0.00 | 27 | 1017.9 |
| 20260906004245 | 88 | 350 | 0.0 | 7.0 | 0.00 | 0.00 | 0.00 | 27 | 1018.0 |
| 20260906003645 | 88 | 274 | 1.7 | 7.0 | 0.00 | 0.00 | 0.00 | 27 | 1018.1 |
| 20260906003045 | 88 | 329 | 1.7 | 7.0 | 0.00 | 0.00 | 0.00 | 27 | 1018.0 |
| 20260906002445 | 89 | 276 | 0.0 | 7.8 | 0.00 | 0.00 | 0.00 | 26 | 1018.0 |
| 20260906001845 | 90 | 265 | 3.5 | 7.8 | 0.00 | 0.00 | 0.00 | 26 | 1018.0 |
| 20260906001245 | 89 | 291 | 0.9 | 6.1 | 0.00 | 0.00 | 0.00 | 27 | 1017.9 |
| 20260906000644 | 90 | 345 | 0.0 | 9.6 | 0.00 | 0.00 | 0.00 | 26 | 1017.8 |
| 20260906000045 | 89 | 335 | 4.3 | 9.6 | 0.00 | 0.00 | 0.00 | 26 | 1017.9 |
| 20260905235444 | 89 | 313 | 0.0 | 7.0 | 0.00 | 0.00 | 0.00 | 27 | 1017.9 |
| 20260905234844 | 89 | 321 | 1.7 | 7.8 | 0.00 | 0.00 | 0.00 | 27 | 1017.9 |
| 20260905234245 | 89 | 325 | 2.6 | 7.8 | 0.00 | 0.00 | 0.00 | 27 | 1017.9 |
| 20260905233644 | 89 | 311 | 5.2 | 8.7 | 0.00 | 0.00 | 0.00 | 27 | 1017.8 |
| 20260905233044 | 89 | 326 | 2.6 | 5.2 | 0.00 | 0.00 | 0.00 | 27 | 1017.8 |